Home > Weather > Muscat > Past weeks

Flag for Oman Weather for the Past 2 Weeks in Muscat, Oman

Now
108 °F

Clear.


Feels Like: 104 °F
Forecast: 84 / 94 °F
Wind: 7 mph from South

Location: International Airport

Current Time: Apr 30, 2016 at 11:51:09 AM

Latest Report: Apr 30, 2016 at 10:50 AM


Visibility: 6 mi

Pressure: 29.74 "Hg

Humidity: 13%

Dew Point: 46 °F

Location of MuscatLocation

Historic Weather in Muscat — Graph

°F

Muscat Temperature Yesterday

Maximum temperature yesterday: 100 °F (at 11:50 AM)
Minimum temperature yesterday: 88 °F (at 1:50 AM)
Average temperature yesterday: 94 °F

High & Low Weather Summary for the Past Weeks

 TemperatureHumidityPressure
High106 °F (Apr 30, 9:50 AM)84% (Apr 27, 4:50 AM)29.92 "Hg (Apr 27, 4:50 AM)
Low77 °F (Apr 22, 5:50 AM)6% (Apr 23, 10:50 AM)29.68 "Hg (Apr 18, 3:50 PM)
Average88 °F33%29.77 "Hg
* Reported Apr 15 9:00 AM — Apr 30 9:50 AM, Muscat, Weather by CustomWeather, © 2016

Note: Actual official high and low records may vary slightly from our data, if they occured in-between our weather recording intervals... More about our weather records

Advertising

Muscat Weather History for the Previous 24 Hours

Scroll right to see more
 ConditionsComfort  
Time TempWeatherWind HumidityBarometerVisibility
9:50 AM
Sat, Apr 30
106 °FClear.9 mph15%29.77 "Hg6 mi
8:50 AM102 °FClear.14 mph17%29.77 "Hg6 mi
7:50 AM99 °FClear.14 mph21%29.77 "Hg6 mi
6:50 AM97 °FClear.13 mph22%29.74 "Hg5 mi
5:50 AM95 °FClear.15 mph23%29.74 "Hg4 mi
4:50 AM95 °FClear.10 mph23%29.71 "Hg5 mi
3:50 AM97 °FClear.12 mph22%29.71 "Hg10 mi
2:50 AM97 °FClear.9 mph22%29.71 "Hg6 mi
1:50 AM97 °FClear.14 mph23%29.71 "Hg10 mi
12:50 AM99 °FClear.10 mph22%29.71 "Hg10 mi
11:50 PM
Fri, Apr 29
93 °FClear.2 mph44%29.74 "Hg10 mi
10:50 PM93 °FPassing clouds.2 mph41%29.74 "HgN/A
9:50 PM91 °FPassing clouds.3 mph52%29.74 "HgN/A
8:50 PM93 °FPassing clouds.6 mph47%29.74 "HgN/A
7:50 PM93 °FPassing clouds.9 mph47%29.71 "HgN/A
6:50 PM97 °FPassing clouds.10 mph28%29.71 "HgN/A
5:50 PM95 °FScattered clouds.10 mph36%29.71 "HgN/A
4:50 PM99 °FScattered clouds.8 mph24%29.71 "HgN/A
3:50 PM99 °FPartly sunny.10 mph21%29.71 "HgN/A
2:50 PM95 °FPartly sunny.9 mph30%29.74 "HgN/A
1:50 PM91 °FScattered clouds.12 mph59%29.74 "HgN/A
12:50 PM95 °FScattered clouds.14 mph47%29.77 "HgN/A
11:50 AM100 °FSunny.12 mph33%29.77 "Hg10 mi
Weather by CustomWeather, © 2016

See weather overviewHow to use our weather pages